Find Kosmos-480

NORAD ID: 5905 Int'l Des: 1972-019 Owner: OKB10 Country: SU operational
LEOCIRCULARPOLAR

Live Position

Loading 3D Globe...

About Kosmos-480

Description loading...

Upcoming Passes

Passes for default location (London). Set your location on the main map for personalized predictions.

Altitude History

Loading altitude history...

Two-Line Element Set

1 5905U 72019A 26104.64983042 .00000031 00000-0 43646-4 0 9998
2 5905 82.9768 336.7990 0018129 195.0284 218.5570 13.19936097603722
Epoch: Apr 14, 2026 • Age: 10 hours

Current Status

Altitude 1207.2 km
Velocity 7.25 km/s
Sub-Earth Point -77.94°S, 37.75°W
Type other

Most Searched